Hollywood, FL

4:26 AM EDT on October 23, 2019 (GMT -0400)
North Perry

Weather History for KHWO - August, 2019

Change the Weather History Date:

Monday, August 19, 2019

  Actual Average (KFLL) Record (KFLL)
Temperature  
Mean Temperature 84 °F 84 °F  
Max Temperature 91 °F 90 °F 97 °F (1952)
Min Temperature 78 °F 79 °F 67 °F (1956)
Degree Days  
Heating Degree Days 0 0  
Month to date heating degree days 0  
Since 1 June heating degree days 0  
Since 1 July heating degree days 0  
Cooling Degree Days 20 20  
Month to date cooling degree days 380  
Year to date cooling degree days 2939  
Since 1 June cooling degree days 1521  
Growing Degree Days 34 (Base 50)    
Moisture  
Dew Point 74 °F    
Average Humidity 71    
Maximum Humidity 82    
Minimum Humidity 55    
Precipitation  
Precipitation 0.33 in 0.23 in 4.45 in (1976)
Month to date precipitation 4.34  
Year to date precipitation 37.97  
Snow  
Snow 0.00 in - - ()
Month to date snowfall  
Since 1 June snowfall  
Since 1 July snowfall  
Snow Depth -    
Sea Level Pressure  
Sea Level Pressure 30.06 in    
Wind  
Wind Speed 6 mph (East)    
Max Wind Speed 22 mph    
Max Gust Speed 29 mph    
Visibility 9 miles    
Events Rain , Thunderstorm    
T = Trace of Precipitation, MM = Missing Value Source: NWS Daily Summary

Daily Weather History Graph

Daily Weather History Graph

Search for Another Location

Airport or City:

Astronomy

Aug. 19, 2019 Rise Set
Actual Time 6:55 AM EDT 7:53 PM EDT
Civil Twilight 6:31 AM EDT 8:17 PM EDT
Nautical Twilight 6:03 AM EDT 8:45 PM EDT
Astronomical Twilight 5:34 AM EDT 9:14 PM EDT
Moon 10:35 PM EDT (8/19) 10:16 AM EDT (8/19)
Length of Visible Light 13h 45m
Length of Day
12h 58m
Waning Gibbous, 85% of the Moon is Illuminated
Aug 19
Waning Gibbous
Aug 23
Last Quarter
Aug 30
New
Sep 5
First Quarter
Sep 14
Full

Hourly Weather History & Observations

Time (EDT) Temp. Heat Index Dew Point Humidity Pressure Visibility Wind Dir Wind Speed Gust Speed Precip Events Conditions
12:53 AM 84.0 °F 90.2 °F 73.0 °F 69% 30.09 in 10.0 mi ESE 4.6 mph - N/A   Clear
1:53 AM 82.9 °F 88.8 °F 73.0 °F 72% 30.07 in 10.0 mi ENE 4.6 mph - N/A   Clear
2:53 AM 82.0 °F 87.9 °F 73.9 °F 76% 30.06 in 10.0 mi Calm Calm - N/A   Clear
3:53 AM 82.0 °F 87.9 °F 73.9 °F 76% 30.04 in 10.0 mi Calm Calm - N/A   Clear
4:53 AM 78.1 °F - 71.1 °F 79% 30.04 in 10.0 mi Calm Calm - 0.01 in   Clear
5:53 AM 79.0 °F - 73.0 °F 82% 30.04 in 10.0 mi Calm Calm - N/A   Clear
6:53 AM 80.1 °F 84.5 °F 73.9 °F 81% 30.05 in 10.0 mi Calm Calm - N/A   Scattered Clouds
7:53 AM 82.0 °F 89.4 °F 75.9 °F 82% 30.07 in 10.0 mi Calm Calm - N/A   Partly Cloudy
8:19 AM 81.0 °F 84.9 °F 71.1 °F 72% 30.07 in 1.8 mi Variable 5.8 mph 28.8 mph 0.12 in Rain Heavy Rain
8:27 AM 80.1 °F 84.5 °F 73.9 °F 81% 30.08 in 3.0 mi North 8.1 mph - 0.12 in Rain Light Rain
8:53 AM 84.0 °F 91.9 °F 75.0 °F 74% 30.08 in 10.0 mi North 3.5 mph - 0.12 in   Scattered Clouds
9:53 AM 89.1 °F 98.0 °F 73.9 °F 61% 30.09 in 10.0 mi East 12.7 mph - N/A   Partly Cloudy
10:53 AM 89.1 °F 98.0 °F 73.9 °F 61% 30.09 in 10.0 mi East 11.5 mph - N/A   Scattered Clouds
11:53 AM 90.0 °F 97.9 °F 73.0 °F 57% 30.09 in 10.0 mi East 11.5 mph - N/A   Scattered Clouds
12:53 PM 91.9 °F 101.3 °F 73.9 °F 55% 30.08 in 10.0 mi East 12.7 mph 19.6 mph N/A   Mostly Cloudy
1:53 PM 84.9 °F 91.4 °F 73.0 °F 67% 30.08 in 6.0 mi ESE 21.9 mph - 0.01 in Rain Light Rain
1:59 PM 81.0 °F 86.7 °F 75.0 °F 82% 30.08 in 1.8 mi SE 19.6 mph 25.3 mph 0.08 in Rain Heavy Rain
2:09 PM 82.0 °F 86.7 °F 72.0 °F 71% 30.07 in 2.0 mi Variable 6.9 mph 25.3 mph 0.18 in Rain Heavy Rain
2:16 PM 84.0 °F 90.2 °F 73.0 °F 69% 30.07 in 10.0 mi Variable 4.6 mph - 0.19 in Thunderstorm Thunderstorm
2:33 PM 88.0 °F 98.5 °F 75.9 °F 67% 30.06 in 10.0 mi SE 5.8 mph - 0.19 in   Scattered Clouds
2:53 PM 89.1 °F 99.1 °F 75.0 °F 63% 30.05 in 10.0 mi ESE 5.8 mph - 0.19 in   Scattered Clouds
3:53 PM 88.0 °F 97.5 °F 75.0 °F 65% 30.04 in 10.0 mi East 10.4 mph - N/A   Scattered Clouds
4:53 PM 89.1 °F 98.0 °F 73.9 °F 61% 30.02 in 10.0 mi East 13.8 mph - N/A   Scattered Clouds
5:53 PM 89.1 °F 99.1 °F 75.0 °F 63% 30.01 in 10.0 mi East 15.0 mph - N/A   Partly Cloudy
6:53 PM 86.0 °F 93.8 °F 73.9 °F 67% 30.02 in 10.0 mi East 11.5 mph - N/A   Partly Cloudy
7:53 PM 84.0 °F 91.2 °F 73.9 °F 72% 30.03 in 10.0 mi East 11.5 mph - N/A   Clear
8:53 PM 80.1 °F 83.6 °F 71.1 °F 74% 30.06 in 10.0 mi ESE 16.1 mph - N/A   Scattered Clouds
9:53 PM 80.1 °F 84.2 °F 73.0 °F 79% 30.08 in 10.0 mi SE 5.8 mph - 0.00 in   Clear
10:53 PM 80.1 °F 84.2 °F 73.0 °F 79% 30.08 in 10.0 mi East 5.8 mph - N/A   Clear
11:53 PM 81.0 °F 85.8 °F 73.0 °F 77% 30.09 in 10.0 mi ESE 3.5 mph - N/A   Clear